When you browse on this site, cookies collect data to enhance your experience and personalize the content and advertising you see.
Visit our Privacy Policy to learn more. By continuing to use the site, you agree to this use of cookies and data.
  • In Hungary
  • List of Countries
  • For 7 days
  • Water Temperature
  • Satellite Maps
  • Weather Map
  • News
  • Weather Widgets
  • user-avatar
    Login

    Hourly Weather Sosenka

    Today, 25 May, Saturday

    Time Temperature Precipitation Wind Pressure Humidity
    00:00 +10°C° 0 mm 2 mps 741 mmHg 93%
    01:00 +10°C° 0 mm 2 mps 741 mmHg 91%
    02:00 +12°C° 0 mm 2 mps 740 mmHg 93%
    03:00 +13°C° 0 mm 2 mps 740 mmHg 93%
    04:00 +13°C° 0 mm 2 mps 740 mmHg 92%
    05:00 +12°C° 0 mm 3 mps 740 mmHg 91%
    06:00 +12°C° 0 mm 3 mps 740 mmHg 89%
    07:00 +13°C° 0 mm 3 mps 739 mmHg 88%
    08:00 +14°C° 0 mm 4 mps 739 mmHg 85%
    09:00 +15°C° 0.2 mm 4 mps 739 mmHg 83%
    10:00 +17°C° 0.2 mm 4 mps 738 mmHg 80%
    11:00 +18°C° 0.2 mm 4 mps 738 mmHg 77%
    12:00 +19°C° 1.1 mm 4 mps 738 mmHg 78%
    13:00 +19°C° 1.1 mm 4 mps 737 mmHg 78%
    14:00 +20°C° 1.1 mm 4 mps 737 mmHg 79%
    15:00 +20°C° 1.2 mm 4 mps 736 mmHg 81%
    16:00 +19°C° 1.2 mm 3 mps 736 mmHg 82%
    17:00 +19°C° 1.2 mm 3 mps 736 mmHg 84%
    18:00 +18°C° 0.1 mm 3 mps 735 mmHg 88%
    19:00 +16°C° 0.1 mm 2 mps 735 mmHg 91%
    20:00 +15°C° 0.1 mm 2 mps 735 mmHg 95%
    21:00 +15°C° 0.3 mm 2 mps 735 mmHg 95%
    22:00 +14°C° 0.3 mm 2 mps 735 mmHg 96%
    23:00 +14°C° 0.3 mm 2 mps 735 mmHg 97%

    Tomorrow, 26 May, Sunday

    Time Temperature Precipitation Wind Pressure Humidity
    00:00 +13°C° 0 mm 2 mps 735 mmHg 97%
    01:00 +12°C° 0 mm 2 mps 735 mmHg 97%
    02:00 +10°C° 0 mm 2 mps 735 mmHg 96%
    03:00 +10°C° 0 mm 2 mps 735 mmHg 96%
    04:00 +12°C° 0 mm 2 mps 735 mmHg 95%
    05:00 +12°C° 0 mm 2 mps 735 mmHg 95%
    06:00 +13°C° 0 mm 2 mps 735 mmHg 87%
    07:00 +13°C° 0 mm 3 mps 736 mmHg 79%
    08:00 +14°C° 0 mm 3 mps 736 mmHg 71%
    09:00 +16°C° 0 mm 3 mps 736 mmHg 65%
    10:00 +18°C° 0 mm 3 mps 736 mmHg 58%
    11:00 +19°C° 0 mm 3 mps 736 mmHg 51%
    12:00 +19°C° 0 mm 3 mps 736 mmHg 50%
    13:00 +19°C° 0 mm 3 mps 736 mmHg 49%
    14:00 +20°C° 0 mm 3 mps 736 mmHg 48%
    15:00 +19°C° 0 mm 3 mps 735 mmHg 49%
    16:00 +19°C° 0 mm 3 mps 735 mmHg 50%
    17:00 +19°C° 0 mm 2 mps 735 mmHg 51%
    18:00 +17°C° 0 mm 2 mps 735 mmHg 58%
    19:00 +15°C° 0 mm 1 mps 735 mmHg 65%
    20:00 +13°C° 0 mm 1 mps 735 mmHg 73%
    21:00 +13°C° 0 mm 1 mps 735 mmHg 76%
    22:00 +12°C° 0 mm 2 mps 735 mmHg 79%
    23:00 +11°C° 0 mm 3 mps 735 mmHg 82%

    Day after tomorrow, 27 May, Monday

    Time Temperature Precipitation Wind Pressure Humidity
    00:00 +11°C° 0 mm 3 mps 735 mmHg 84%
    01:00 +10°C° 0 mm 3 mps 735 mmHg 86%
    02:00 +10°C° 0 mm 3 mps 735 mmHg 88%
    03:00 +10°C° 0 mm 3 mps 735 mmHg 86%
    04:00 +10°C° 0 mm 4 mps 736 mmHg 84%
    05:00 +10°C° 0 mm 4 mps 736 mmHg 82%
    06:00 +11°C° 0 mm 4 mps 736 mmHg 76%
    07:00 +12°C° 0 mm 5 mps 736 mmHg 70%
    08:00 +13°C° 0 mm 5 mps 737 mmHg 64%
    09:00 +14°C° 0.1 mm 5 mps 737 mmHg 64%
    10:00 +14°C° 0.1 mm 5 mps 737 mmHg 63%
    11:00 +14°C° 0.1 mm 5 mps 737 mmHg 63%
    12:00 +15°C° 0.1 mm 5 mps 737 mmHg 60%
    13:00 +16°C° 0.1 mm 5 mps 738 mmHg 58%
    14:00 +17°C° 0.1 mm 5 mps 738 mmHg 55%
    15:00 +17°C° 0.1 mm 5 mps 738 mmHg 60%
    16:00 +17°C° 0.1 mm 5 mps 738 mmHg 65%
    17:00 +17°C° 0.1 mm 4 mps 738 mmHg 70%
    18:00 +15°C° 0 mm 4 mps 738 mmHg 75%
    19:00 +14°C° 0 mm 3 mps 738 mmHg 81%
    20:00 +14°C° 0 mm 2 mps 738 mmHg 86%
    21:00 +14°C° 1.1 mm 2 mps 738 mmHg 89%
    22:00 +14°C° 1.1 mm 1 mps 738 mmHg 93%
    23:00 +13°C° 1.1 mm 1 mps 739 mmHg 96%

    28 May, Tuesday

    Time Temperature Precipitation Wind Pressure Humidity
    00:00 +14°C° 0.4 mm 1 mps 739 mmHg 97%
    01:00 +14°C° 0.4 mm 1 mps 739 mmHg 97%
    02:00 +14°C° 0.4 mm 1 mps 739 mmHg 98%
    03:00 +14°C° 0.1 mm 2 mps 739 mmHg 97%
    04:00 +15°C° 0.1 mm 2 mps 739 mmHg 97%
    05:00 +15°C° 0.1 mm 2 mps 740 mmHg 96%
    06:00 +16°C° 0 mm 3 mps 740 mmHg 92%
    07:00 +16°C° 0 mm 3 mps 740 mmHg 89%
    08:00 +17°C° 0 mm 3 mps 741 mmHg 85%
    09:00 +18°C° 0 mm 3 mps 741 mmHg 79%
    10:00 +19°C° 0 mm 3 mps 741 mmHg 74%
    11:00 +21°C° 0 mm 4 mps 742 mmHg 68%
    12:00 +21°C° 0 mm 3 mps 741 mmHg 65%
    13:00 +22°C° 0 mm 3 mps 741 mmHg 62%
    14:00 +24°C° 0 mm 3 mps 741 mmHg 58%
    15:00 +24°C° 0 mm 3 mps 742 mmHg 60%
    16:00 +24°C° 0 mm 2 mps 742 mmHg 62%
    17:00 +24°C° 0 mm 2 mps 742 mmHg 63%
    18:00 +23°C° 0.2 mm 2 mps 742 mmHg 72%
    19:00 +20°C° 0.2 mm 2 mps 742 mmHg 81%
    20:00 +18°C° 0.2 mm 2 mps 742 mmHg 90%
    21:00 +18°C° 0.8 mm 2 mps 742 mmHg 92%
    22:00 +18°C° 0.8 mm 2 mps 741 mmHg 94%
    23:00 +17°C° 0.8 mm 3 mps 741 mmHg 96%

    29 May, Wednesday

    Time Temperature Precipitation Wind Pressure Humidity
    00:00 +18°C° 1 mm 3 mps 741 mmHg 96%
    01:00 +18°C° 1 mm 3 mps 741 mmHg 96%
    02:00 +18°C° 1 mm 3 mps 741 mmHg 96%
    03:00 +18°C° 0 mm 3 mps 741 mmHg 95%
    04:00 +18°C° 0 mm 4 mps 741 mmHg 95%
    05:00 +18°C° 0 mm 4 mps 741 mmHg 95%
    06:00 +19°C° 0 mm 4 mps 741 mmHg 90%
    07:00 +20°C° 0 mm 4 mps 741 mmHg 85%
    08:00 +22°C° 0 mm 4 mps 741 mmHg 80%
    09:00 +23°C° 0 mm 5 mps 741 mmHg 71%
    10:00 +26°C° 0 mm 5 mps 741 mmHg 63%
    11:00 +27°C° 0 mm 6 mps 741 mmHg 55%
    12:00 +28°C° 0 mm 6 mps 741 mmHg 53%
    13:00 +28°C° 0 mm 6 mps 741 mmHg 50%
    14:00 +28°C° 0 mm 6 mps 741 mmHg 48%
    15:00 +28°C° 0 mm 5 mps 741 mmHg 51%
    16:00 +27°C° 0 mm 5 mps 741 mmHg 53%
    17:00 +27°C° 0 mm 4 mps 741 mmHg 55%
    18:00 +25°C° 0 mm 4 mps 741 mmHg 61%
    19:00 +23°C° 0 mm 4 mps 741 mmHg 67%
    20:00 +21°C° 0 mm 4 mps 741 mmHg 73%
    21:00 +21°C° 0.1 mm 4 mps 741 mmHg 76%
    22:00 +20°C° 0.1 mm 4 mps 741 mmHg 79%
    23:00 +20°C° 0.1 mm 4 mps 742 mmHg 82%

    30 May, Thursday

    Time Temperature Precipitation Wind Pressure Humidity
    00:00 +20°C° 0.1 mm 4 mps 741 mmHg 86%
    01:00 +19°C° 0.1 mm 4 mps 741 mmHg 90%
    02:00 +19°C° 0.1 mm 3 mps 741 mmHg 94%
    03:00 +19°C° 0 mm 4 mps 741 mmHg 93%
    04:00 +19°C° 0 mm 4 mps 741 mmHg 91%
    05:00 +20°C° 0 mm 4 mps 741 mmHg 90%
    06:00 +21°C° 0.5 mm 4 mps 742 mmHg 87%
    07:00 +22°C° 0.5 mm 5 mps 742 mmHg 84%
    08:00 +22°C° 0.5 mm 5 mps 742 mmHg 80%
    09:00 +23°C° 1 mm 5 mps 742 mmHg 81%
    10:00 +23°C° 1 mm 4 mps 743 mmHg 82%
    11:00 +23°C° 1 mm 4 mps 743 mmHg 83%
    12:00 +22°C° 1.3 mm 4 mps 743 mmHg 83%
    13:00 +22°C° 1.3 mm 3 mps 744 mmHg 83%
    14:00 +22°C° 1.3 mm 3 mps 744 mmHg 83%
    15:00 +21°C° 0.3 mm 3 mps 744 mmHg 82%
    16:00 +21°C° 0.3 mm 2 mps 745 mmHg 81%
    17:00 +20°C° 0.3 mm 2 mps 745 mmHg 81%
    18:00 +19°C° 0 mm 2 mps 745 mmHg 83%
    19:00 +18°C° 0 mm 2 mps 746 mmHg 85%
    20:00 +16°C° 0 mm 2 mps 746 mmHg 87%
    21:00 +15°C° 0 mm 2 mps 746 mmHg 90%
    22:00 +14°C° 0 mm 2 mps 747 mmHg 92%
    23:00 +13°C° 0 mm 1 mps 747 mmHg 94%
    Show more